ZA-AEROSAT (42713 NORAD) Tracking and Keplerian Element Data

This shows tracking and keplerian element data for the satellite.

Feedback or suggestion? Click here.




ElementValue
Catalog42713
NameZA-AEROSAT
Epoch Orbit8585
Epoch Day322.88801979
Epoch Year2018
RAAN288.0294
Inclination51.6339
Eccentricity0.0003998
Argument of Perigee66.1608
Mean Anonmoly293.9811
Mean Motion15.75543981
Decay Rate0.00037996
L11 42713U 98067LU 18322.88801979 .00037996 00000-0 24713-3 0 9997
L22 42713 51.6339 288.0294 0003998 66.1608 293.9811 15.75543981 85852

Live tracking and technical data element details for ZA-AEROSAT (NORAD 42713). ZA-AEROSAT can be tracked NOW for your location showing map with azimuth and elevation plus other details from your city location.

Track the satellite on the map from your city or location and see movement details for azimuth, elevation, latitude, longitude, range, height, and movement on the map or in text.







IsCatalogInMostPopularTable: catalog: 42713, numindb: 137
Update: records affected: 1



GetName: 42713 ZA-AEROSAT

Hit Count: updated at: Mon, 19 Nov 2018 11:14:55 GMT